EW3163 Weather Reports


Display with metric or nautical units.
time (UTC)temp
F
wind
direction
speed
MPH
gust
MPH
rain 1hr
in
rain 24hr
in
rain mn
in
humidity
%
barometer
mb
20260906231504 63 115 0.0 0.0 0.00 0.01 0.00 84 1011.2
20260906230005 63 115 0.0 0.0 0.00 0.01 0.01 84 1011.2
20260906224503 64 115 0.0 0.0 0.00 0.01 0.01 84 1011.4
20260906223006 64 152 0.0 0.0 0.00 0.01 0.01 83 1011.3
20260906221502 64 167 0.0 0.0 0.00 0.01 0.01 83 1011.3
20260906220136 64 192 0.0 0.0 0.00 0.01 0.01 83 1011.5
20260906214600 64 174 0.0 0.0 0.00 0.01 0.01 82 1011.4
20260906213103 64 155 0.0 0.0 0.00 0.01 0.01 81 1011.3
20260906211603 64 167 0.0 0.0 0.00 0.01 0.01 81 1011.5
20260906210109 65 139 0.0 0.0 0.00 0.01 0.01 80 1011.5
20260906204557 65 153 0.0 0.0 0.00 0.01 0.01 80 1011.5
20260906203056 65 153 0.0 1.0 0.00 0.01 0.01 79 1011.7
20260906201553 65 176 0.0 0.0 0.00 0.01 0.01 78 1012.0
20260906200054 65 150 0.0 1.0 0.00 0.01 0.01 78 1011.9
20260906194611 65 156 0.0 0.0 0.00 0.01 0.01 77 1011.9
20260906193100 66 203 0.0 0.0 0.00 0.01 0.01 76 1012.2
20260906191551 66 201 0.0 1.0 0.00 0.01 0.01 75 1012.2
20260906190051 67 154 0.0 3.0 0.00 0.01 0.01 73 1012.0
20260906184604 67 80 0.0 1.0 0.00 0.01 0.01 73 1012.1
20260906183057 67 127 0.0 1.0 0.00 0.01 0.01 73 1012.4
20260906181546 67 214 0.0 3.0 0.00 0.01 0.01 73 1012.4
20260906180045 67 141 0.0 1.0 0.00 0.01 0.01 74 1012.3
20260906174543 67 140 0.0 0.0 0.00 0.01 0.01 75 1012.3
20260906173041 68 129 0.0 5.0 0.00 0.01 0.01 76 1012.4
20260906171541 67 141 0.0 2.0 0.00 0.01 0.01 77 1012.7
20260906170049 67 121 0.0 2.0 0.00 0.01 0.01 78 1012.8
20260906164545 67 131 0.0 5.0 0.00 0.01 0.01 78 1012.6
20260906163046 67 167 0.0 3.0 0.00 0.01 0.01 78 1012.9
20260906161535 67 143 0.0 3.0 0.00 0.01 0.01 78 1013.2
20260906160046 67 141 0.0 2.0 0.00 0.01 0.01 78 1013.3
20260906154533 67 161 0.0 1.0 0.00 0.01 0.01 78 1013.5
20260906153028 67 136 0.0 5.0 0.00 0.01 0.01 77 1013.9
20260906151526 67 141 0.0 4.0 0.00 0.01 0.01 80 1014.0
20260906150041 67 148 0.0 6.0 0.00 0.01 0.01 80 1014.2
20260906144531 66 181 0.0 4.0 0.00 0.01 0.01 81 1014.5
20260906143023 65 138 0.0 2.0 0.00 0.01 0.01 83 1014.9
20260906141526 65 144 0.0 4.0 0.00 0.01 0.01 82 1014.9
20260906140012 64 135 0.0 5.0 0.00 0.01 0.01 87 1015.1
20260906134508 62 191 1.0 4.0 0.00 0.01 0.01 88 1015.0
20260906133007 62 150 0.0 2.0 0.00 0.01 0.01 89 1015.1
20260906131521 62 226 0.0 4.0 0.00 0.01 0.01 89 1015.0
20260906130006 61 124 0.0 3.0 0.00 0.01 0.01 91 1015.7
20260906124503 60 158 1.0 5.0 0.00 0.01 0.01 91 1015.9
20260906123002 60 312 0.0 5.0 0.00 0.01 0.01 90 1015.6
20260906121600 60 160 0.0 3.0 0.01 0.01 0.01 90 1016.1
20260906120104 60 145 0.0 4.0 0.01 0.01 0.01 90 1016.2
20260906114556 59 152 0.0 4.0 0.01 0.01 0.01 91 1016.4
20260906113103 59 137 0.0 3.0 0.01 0.01 0.01 91 1016.5
20260906111554 59 146 0.0 1.0 0.00 0.00 0.00 89 1016.7
20260906110051 59 189 0.0 3.0 0.00 0.00 0.00 88 1017.1
20260906104605 59 146 0.0 4.0 0.00 0.00 0.00 85 1017.4
20260906103046 61 195 0.0 1.0 0.00 0.00 0.00 81 1017.6
20260906101546 62 141 0.0 3.0 0.00 0.00 0.00 76 1017.6
20260906100045 62 156 0.0 1.0 0.00 0.00 0.00 80 1017.7
20260906094605 60 159 0.0 1.0 0.00 0.00 0.00 82 1017.9
20260906093038 60 201 0.0 0.0 0.00 0.00 0.00 81 1017.9
20260906091541 59 147 0.0 0.0 0.00 0.00 0.00 81 1018.0
20260906090031 59 205 0.0 1.0 0.00 0.00 0.00 82 1017.8
20260906084535 59 148 0.0 0.0 0.00 0.00 0.00 82 1017.8
20260906083033 58 141 0.0 0.0 0.00 0.00 0.00 83 1018.0
20260906081542 58 145 0.0 0.0 0.00 0.00 0.00 82 1018.1
20260906080026 58 160 0.0 2.0 0.00 0.00 0.00 82 1018.2
20260906074523 57 174 0.0 0.0 0.00 0.00 0.00 85 1018.3
20260906073021 57 133 0.0 2.0 0.00 0.00 0.00 85 1018.4
20260906071518 56 129 0.0 1.0 0.00 0.00 0.00 87 1018.4
20260906070015 56 135 0.0 1.0 0.00 0.00 0.00 87 1018.6
20260906064514 55 201 0.0 1.0 0.00 0.00 0.00 89 1018.9
20260906063010 54 124 0.0 2.0 0.00 0.00 0.00 91 1019.1
20260906061508 53 131 0.0 0.0 0.00 0.00 0.00 92 1019.2
20260906060001 0 0.0 0.0 0.00 0.00 0.00 1019.3
20260906054557 0 0.0 0.0 0.00 0.00 0.00 1019.4
20260906053053 0 0.0 0.0 0.00 0.00 0.00 1019.5
20260906051549 0 0.0 0.0 0.00 0.00 0.00 1019.6
20260906050050 50 167 0.0 0.0 0.00 0.00 0.00 92 1019.7
20260906044545 51 162 0.0 0.0 0.00 0.00 0.00 93 1020.0
20260906043046 51 131 0.0 0.0 0.00 0.00 0.00 93 1020.2
20260906041546 50 158 0.0 0.0 0.00 0.00 0.00 93 1020.3
20260906040040 50 158 0.0 0.0 0.00 0.00 0.00 93 1020.4
20260906034545 50 158 0.0 0.0 0.00 0.00 0.00 93 1020.5
20260906033039 49 203 0.0 0.0 0.00 0.00 0.00 93 1020.7
20260906031547 49 203 0.0 0.0 0.00 0.00 0.00 93 1020.8
20260906030034 49 203 0.0 0.0 0.00 0.00 0.00 94 1020.9
20260906024532 48 157 0.0 0.0 0.00 0.00 0.00 94 1021.2
20260906023031 48 124 0.0 0.0 0.00 0.00 0.00 92 1021.3
20260906021527 48 124 0.0 0.0 0.00 0.00 0.00 92 1021.5
20260906020031 48 124 0.0 0.0 0.00 0.00 0.00 92 1021.7
20260906014527 48 124 0.0 0.0 0.00 0.00 0.00 93 1021.8
20260906013023 48 124 0.0 0.0 0.00 0.00 0.00 91 1021.9
20260906011520 48 124 0.0 0.0 0.00 0.00 0.00 91 1022.1
20260906010018 48 124 0.0 0.0 0.00 0.00 0.00 91 1022.2
20260906004516 48 124 0.0 0.0 0.00 0.00 0.00 90 1022.5
20260906003022 48 124 0.0 0.0 0.00 0.00 0.00 89 1022.7
20260906001512 49 124 0.0 0.0 0.00 0.00 0.00 87 1022.8
20260906000009 50 124 0.0 0.0 0.00 0.00 0.00 87 1022.7
20260905234509 51 124 0.0 0.0 0.00 0.00 0.00 87 1022.8
20260905233002 52 124 0.0 0.0 0.00 0.00 0.00 87 1022.8